Regional Weather Roundup
Issued by NWS

Home | Current Version | Previous Version | Text Only | Print | Product List | Glossary Off
Versions: 1 2 3 4 5 6 7 8 9 10 11 12 13 14 15 16 17 18 19 20 21 22 23 24 25 26 27 28 29 30 31 32 33 34 35 36 37 38 39 40 41 42 43 44 45 46 47 48 49 50

000
ASUS44 KMEG 200410
RWRTN
TENNESSEE HOURLY STATE WEATHER ROUNDUP
NATIONAL WEATHER SERVICE MEMPHIS TN
1000 PM CST SUN FEB 19 2017

TNZ002-004-019-021-049-052-054-088>092-200500-
WEST TENNESSEE

CITY           SKY/WX    TMP DP  RH WIND       PRES   REMARKS
MEMPHIS INTL   PTCLDY    65  50  58 SE5       30.08S
NWS MEMPHIS      N/A     62 N/A N/A MISG        N/A
JACKSON        CLEAR     51  49  92 S5        30.11R
UNION CITY     CLEAR     50  50 100 CALM      30.10S
PARIS          CLEAR     54  48  82 SE3       30.12R
HUNTINGDON     CLEAR     52  48  87 CALM      30.11R
$$

TNZ008-025-027-028-033-062-065-066-200500-
NORTH MIDDLE TENNESSEE

CITY           SKY/WX    TMP DP  RH WIND       PRES   REMARKS
NASHVILLE      PTCLDY    53  48  83 CALM      30.14R
PORTLAND       CLEAR     48  46  93 CALM      30.15R
CLARKSVILLE    CLOUDY    52  49  89 E5        30.13R
SMYRNA         CLEAR     47  46  97 CALM      30.15R FOG
COOKEVILLE     CLEAR     43  43 100 CALM      30.13F
GALLATIN       CLEAR     48  46  93 CALM      30.17R
CROSSVILLE     CLEAR     45  43  93 CALM      30.17R
$$

TNZ061-075-076-078-094-096-097-200500-
SOUTH MIDDLE TENNESSEE

CITY           SKY/WX    TMP DP  RH WIND       PRES   REMARKS
FAYETTEVILLE   CLEAR     57  48  72 E3        30.14S
TULLAHOMA      CLEAR     45  43  93 CALM      30.15S
WINCHESTER     CLEAR     45  43  93 CALM      30.16R
MCMINNVILLE    CLEAR     45  45 100 CALM      30.14F
COLUMBIA       CLEAR    N/A N/A N/A SW3       30.12S
SHELBYVILLE    CLEAR     50  48  93 CALM      30.15S
$$

TNZ017-018-042-046-047-200500-
NORTHEAST TENNESSEE

CITY           SKY/WX    TMP DP  RH WIND       PRES   REMARKS
TRI CITIES     CLEAR     42  39  89 CALM      30.18S
ELIZABETHTON   CLEAR     39  39 100 CALM      30.18F
$$

TNZ012-013-036-069-073-074-200500-
CENTRAL EAST TENNESSEE

CITY           SKY/WX    TMP DP  RH WIND       PRES   REMARKS
KNOXVILLE      CLEAR     50  43  77 CALM      30.14S
OAK RIDGE      CLEAR     46  43  89 CALM      30.17S
GATLINBURG     CLEAR     43  39  87 CALM      30.15F
MORRISTOWN     PTCLDY    46  43  87 CALM      30.15S
JACKSBORO      CLEAR     43  43 100 CALM      30.20R
$$

TNZ083-085-099-200500-
SOUTHEAST TENNESSEE

CITY           SKY/WX    TMP DP  RH WIND       PRES   REMARKS
CHATTANOOGA    CLEAR     50  46  86 CALM      30.16R
$$

SKY/WX REPORTED AS FAIR MEANS FEW OR NO CLOUDS BELOW
12 THOUSAND FEET.





USA.gov is the U.S. government's official web portal to all federal, state and local government web resources and services.